STARLINK-34920

Last updated on Tue Sep 16 2025 00:02:08 GMT+0000 (Coordinated Universal Time)

1 65447U 25194P 25257.57583618 -.00447488 00000+0 -26478-2 0 9996 2 65447 97.5975 108.8635 0000891 71.0653 289.0710 15.79172804 3027
UTC large
Height (km)
Speed (km/s)
/
Latitude / Longitude
Inclination (degrees)
Orbital Period (minutes)
Azimuth
Elevation
Range (km)
Doppler Factor

Next 0 passes for location: London (51.5072 / 0.1276)

Sorry there are no passes over London.